HAWK-3C

Last updated on Wed Sep 23 2026 00:04:14 GMT+0000 (Coordinated Universal Time)

1 48948U 21059BX 26265.54727663 .00048659 00000+0 28423-3 0 9994 2 48948 97.6642 117.9058 0002819 336.7787 23.3351 15.78261918293167
UTC large
Height (km)
Speed (km/s)
/
Latitude / Longitude
Inclination (degrees)
Orbital Period (minutes)
Azimuth
Elevation
Range (km)
Doppler Factor

Next 0 passes for location: London (51.5072 / 0.1276)

No passes found over London.
HAWK-3C